Theta_e
334 325 325 329 325 323 323 324 328 326 326 326 325 325 326 321 323 324 323 325 324 321
330 329 329 330 330 325 329 324 325 326 325 325 324 323 324 318 320 322 322 322 322 320
329 329 329 329 328 328 329 326 324 324 324 323 322 322 322 319 320 319 317 317 318 319
327 327 327 329 327 325 325 324 322 321 320 320 319 320 320 319 317 315 316 316 315 315
325 325 326 324 323 323 322 321 319 318 317 317 316 317 316 314 313 312 311 311 311 311
323 323 322 321 321 320 318 318 317 316 315 314 313 313 312 311 310 309 309 310 311 311
320 319 318 318 317 316 316 315 314 314 312 311 310 309 308 308 308 308 309 311 310 309
316 316 315 314 314 313 312 312 311 310 309 308 307 306 304 304 305 307 307 308 308 309
312 312 312 311 310 309 309 308 307 306 306 306 306 297 296 298 302 302 304 305 307 307
309 308 307 307 306 306 305 306 305 305 306 306 306 296 295 296 299 302 303 301 301 302
304 303 303 303 303 304 304 304 304 304 304 304 304 296 295 295 302 302 302 302 302 301
301 301 301 301 301 302 302 303 303 304 304 304 303 297 294 295 300 301 301 302 301 301
300 299 299 300 300 301 302 301 302 299 303 301 301 295 293 295 298 297 298 300 301 299
299 298 299 298 298 298 299 299 298 300 301 301 300 300 294 293 294 294 294 296 298 301
Wind_Speed
13 8 8 7 5 5 4 5 5 5 6 7 7 7 7 9 7 9 9 11 10 10
9 7 8 7 3 4 2 2 4 6 6 7 7 7 8 7 9 8 10 11 11 10
9 7 6 4 4 3 2 3 5 6 6 7 8 8 8 9 10 11 9 10 13 13
7 6 4 2 2 4 4 5 6 7 8 9 10 10 10 11 13 14 15 14 15 16
5 4 3 4 5 6 6 7 7 8 10 11 12 13 14 15 16 17 18 17 17 17
5 3 4 5 6 7 8 9 10 11 12 14 15 15 15 17 17 17 17 17 16 15
5 5 5 6 7 8 10 12 12 13 14 15 16 16 17 14 15 16 15 14 14 14
4 4 6 7 8 10 11 12 14 15 15 16 14 10 12 14 15 14 14 14 14 13
6 7 8 9 11 12 14 14 15 15 15 14 10 11 10 12 13 13 13 13 14 14
8 9 10 11 12 13 14 13 14 13 12 12 11 9 8 12 12 12 12 12 12 13
10 11 12 12 12 12 12 12 12 11 10 10 8 6 9 11 12 11 12 12 13 14
11 12 12 12 12 12 11 11 10 10 11 11 10 6 6 12 12 11 13 12 14 15
11 11 11 11 11 10 11 11 9 11 10 10 10 6 6 9 9 11 10 14 14 14
10 10 10 10 10 10 10 10 10 11 10 9 8 8 7 9 9 9 10 11 12 11
Wind_Direction
151 133 125 89 93 69 59 49 27 14 5 356 350 347 346 311 339 330 315 306 311 301
115 95 92 103 123 91 46 9 26 352 346 340 334 335 336 336 309 321 314 308 292 296
106 102 103 109 61 40 11 339 326 329 331 325 324 322 323 321 320 308 299 301 304 299
100 98 93 67 7 351 328 328 323 327 322 318 313 315 312 309 299 307 303 299 294 289
102 89 38 4 355 347 336 323 320 321 315 314 313 314 310 307 309 305 304 303 299 295
87 54 19 357 350 333 324 318 315 320 317 314 313 310 308 307 305 305 306 304 303 302
59 27 6 344 335 329 325 316 317 317 314 311 310 310 305 312 316 308 304 305 306 304
41 356 340 329 327 323 314 311 313 312 311 308 309 313 345 321 308 307 309 308 303 299
351 337 330 324 323 316 309 312 313 309 310 311 307 54 12 324 313 310 299 307 313 314
339 326 320 318 313 309 312 312 311 310 316 318 316 43 349 322 303 308 310 307 304 304
327 317 316 317 314 318 314 316 314 316 316 312 316 12 322 330 300 309 302 301 301 298
326 320 321 320 321 317 316 311 312 312 314 318 324 3 11 335 312 315 309 308 306 302
321 320 318 321 318 320 313 308 324 314 311 325 315 75 26 339 324 315 314 307 306 304
328 326 322 325 325 315 312 322 311 312 319 309 341 327 1 311 311 312 310 303 303 309